| time (UTC) | temp F | wind direction | speed MPH | gust MPH | rain 1hr in | rain 24hr in | rain mn in | humidity % | barometer mb |
| 20260505034505 | 62 | 247 | 8.0 | 12.0 | 0.00 | 0.00 | 0.01 | 69 | 1023.0 |
| 20260505033004 | 62 | 225 | 8.0 | 10.0 | 0.00 | 0.00 | 0.01 | 71 | 1023.3 |
| 20260505031505 | 62 | 225 | 8.0 | 10.0 | 0.00 | 0.00 | 0.01 | 71 | 1023.3 |
| 20260505030005 | 61 | 225 | 7.0 | 8.0 | 0.00 | 0.00 | 0.01 | 72 | 1023.7 |
| 20260505024504 | 61 | 225 | 7.0 | 8.0 | 0.00 | 0.00 | 0.01 | 72 | 1023.7 |
| 20260505023004 | 61 | 202 | 6.0 | 8.0 | 0.00 | 0.00 | 0.00 | 72 | 1023.9 |
| 20260505021505 | 61 | 202 | 6.0 | 8.0 | 0.00 | 0.00 | 0.00 | 72 | 1023.9 |
| 20260505020005 | 61 | 247 | 8.0 | 15.0 | 0.00 | 0.00 | 0.00 | 73 | 1024.0 |
| 20260505014504 | 61 | 247 | 8.0 | 15.0 | 0.00 | 0.00 | 0.00 | 73 | 1024.0 |
| 20260505013005 | 60 | 225 | 9.0 | 13.0 | 0.00 | 0.00 | 0.00 | 75 | 1023.9 |
| 20260505011505 | 60 | 225 | 9.0 | 13.0 | 0.00 | 0.00 | 0.00 | 75 | 1023.9 |
| 20260505010005 | 60 | 225 | 9.0 | 12.0 | 0.00 | 0.00 | 0.00 | 77 | 1023.7 |
| 20260505004505 | 60 | 225 | 9.0 | 12.0 | 0.00 | 0.00 | 0.00 | 77 | 1023.7 |
| 20260505003005 | 59 | 225 | 8.0 | 10.0 | 0.00 | 0.00 | 0.00 | 81 | 1023.6 |
| 20260505001504 | 59 | 225 | 8.0 | 10.0 | 0.00 | 0.00 | 0.00 | 81 | 1023.6 |
| 20260505000005 | 57 | 247 | 7.0 | 9.0 | 0.00 | 0.00 | 0.00 | 86 | 1023.4 |
| 20260504234505 | 57 | 247 | 7.0 | 9.0 | 0.00 | 0.00 | 0.00 | 86 | 1023.4 |
| 20260504233005 | 55 | 247 | 7.0 | 9.0 | 0.00 | 0.00 | 0.00 | 90 | 1023.4 |
| 20260504231505 | 55 | 247 | 7.0 | 9.0 | 0.00 | 0.00 | 0.00 | 90 | 1023.4 |
| 20260504230005 | 53 | 225 | 8.0 | 12.0 | 0.00 | 0.00 | 0.00 | 92 | 1023.0 |
| 20260504224504 | 53 | 225 | 8.0 | 12.0 | 0.00 | 0.00 | 0.00 | 92 | 1023.0 |
| 20260504223005 | 52 | 247 | 8.0 | 10.0 | 0.00 | 0.00 | 0.00 | 94 | 1022.6 |
| 20260504221504 | 52 | 247 | 8.0 | 10.0 | 0.00 | 0.00 | 0.00 | 94 | 1022.6 |
| 20260504220004 | 50 | 270 | 6.0 | 7.0 | 0.00 | 0.00 | 0.00 | 95 | 1022.1 |
| 20260504214504 | 50 | 270 | 6.0 | 7.0 | 0.00 | 0.00 | 0.00 | 95 | 1022.1 |
| 20260504213004 | 49 | 270 | 6.0 | 8.0 | 0.00 | 0.00 | 0.00 | 96 | 1021.8 |
| 20260504211505 | 49 | 270 | 6.0 | 8.0 | 0.00 | 0.00 | 0.00 | 96 | 1021.8 |
| 20260504210005 | 49 | 270 | 6.0 | 7.0 | 0.00 | 0.00 | 0.00 | 95 | 1021.5 |
| 20260504204505 | 49 | 270 | 6.0 | 7.0 | 0.00 | 0.00 | 0.00 | 95 | 1021.5 |
| 20260504203005 | 49 | 270 | 5.0 | 6.0 | 0.00 | 0.00 | 0.00 | 95 | 1021.3 |
| 20260504201504 | 49 | 270 | 5.0 | 6.0 | 0.00 | 0.00 | 0.00 | 95 | 1021.3 |
| 20260504200005 | 49 | 292 | 5.0 | 6.0 | 0.00 | 0.00 | 0.00 | 95 | 1021.1 |
| 20260504194505 | 49 | 292 | 5.0 | 6.0 | 0.00 | 0.00 | 0.00 | 95 | 1021.1 |
| 20260504193005 | 49 | 270 | 5.0 | 6.0 | 0.00 | 0.00 | 0.00 | 95 | 1020.9 |
| 20260504191504 | 49 | 270 | 5.0 | 6.0 | 0.00 | 0.00 | 0.00 | 95 | 1020.9 |
| 20260504190004 | 49 | 270 | 5.0 | 7.0 | 0.00 | 0.00 | 0.00 | 95 | 1020.8 |
| 20260504184505 | 49 | 270 | 5.0 | 7.0 | 0.00 | 0.00 | 0.00 | 95 | 1020.8 |
| 20260504183005 | 49 | 292 | 5.0 | 5.0 | 0.00 | 0.00 | 0.00 | 95 | 1020.6 |
| 20260504181505 | 49 | 292 | 5.0 | 5.0 | 0.00 | 0.00 | 0.00 | 95 | 1020.6 |
| 20260504180005 | 50 | 292 | 5.0 | 6.0 | 0.00 | 0.00 | 0.00 | 93 | 1020.6 |
| 20260504174505 | 50 | 292 | 5.0 | 6.0 | 0.00 | 0.00 | 0.00 | 93 | 1020.6 |
| 20260504173004 | 51 | 292 | 7.0 | 8.0 | 0.00 | 0.00 | 0.00 | 94 | 1020.7 |
| 20260504171506 | 51 | 292 | 7.0 | 8.0 | 0.00 | 0.00 | 0.00 | 94 | 1020.7 |
| 20260504081505 | 64 | 225 | 9.0 | 15.0 | 0.00 | 0.00 | 0.00 | 59 | 1015.9 |
| 20260504050004 | 68 | 292 | 15.0 | 22.0 | 0.00 | 0.00 | 0.00 | 52 | 1014.1 |
| 20260504044505 | 68 | 292 | 15.0 | 22.0 | 0.00 | 0.00 | 0.00 | 52 | 1014.1 |
| 20260504043005 | 69 | 292 | 16.0 | 26.0 | 0.00 | 0.00 | 0.00 | 50 | 1013.9 |
| 20260504041504 | 69 | 292 | 16.0 | 26.0 | 0.00 | 0.00 | 0.00 | 50 | 1013.9 |
| 20260504040004 | 67 | 292 | 17.0 | 25.0 | 0.00 | 0.00 | 0.00 | 53 | 1014.0 |